Language: 


Des rapports , des résumés tant et plus, au choix de chacun....


Données statistiques de la station
Quotidien Rapport Janvier 28, 2018 Unités:  Métrique    Anglais   les deux
« Précédent Jour
Suivant Jour »
Quotidien Hebdomadaire Mensuel Annuel Actuel
  Haut: Bas: Moyen:
Température: -17.8 °C -13.8 °C -11.9 °C
Pt de rosée: -17.8 °C -13.9 °C -12.1 °C
Humidité: Humidity % 91 % 96 %
Vitesse du vent: 0 km/h 0 km/h 28 km/h
Rafales: 0 km/h - -
Vent:- - WSW
Pression: 0 hPa 34774.2 hPa -
Précipitation: 7.62 mm    
Historical Graphs
 
 
Données statistiques pour Janvier 28, 2018
Heure Température Point de rosée Pression Vent Vitesse du vent Refales Humidité Pluie (taux horaire)
-17.8 °C -17.8 °C 0 hPa Calm     Humidity % 0 mm
00:02 -13.8 °C -13.9 °C 34774.2 hPa SSW 22 km/h 25.4 km/h 98 % 0 mm
00:07 -13.8 °C -13.9 °C 34774.2 hPa SW 20.3 km/h 25.4 km/h 98 % 0 mm
00:12 -13.7 °C -13.9 °C 34774.2 hPa SSW 22.5 km/h 25.4 km/h 98 % 0 mm
00:17 -13.7 °C -13.9 °C 34774.2 hPa SW 19.2 km/h 33.2 km/h 98 % 0 mm
00:22 -13.7 °C -13.9 °C 34774.2 hPa SW 26.2 km/h 33.2 km/h 98 % 0 mm
00:27 -13.7 °C -13.9 °C 34774.2 hPa SSW 22 km/h 27.7 km/h 98 % 0 mm
00:32 -13.7 °C -13.9 °C 34774.2 hPa SW 27.2 km/h 33.6 km/h 98 % 0 mm
00:37 -13.6 °C -13.3 °C 34774.2 hPa WSW 22 km/h 33.6 km/h 98 % 0 mm
00:43 -13.6 °C -13.3 °C 34774.2 hPa WSW 20.3 km/h 31.4 km/h 98 % 0 mm
00:48 -13.6 °C -13.3 °C 34774.2 hPa WSW 19.6 km/h 31.4 km/h 98 % 0 mm
00:53 -13.6 °C -13.3 °C 34774.2 hPa SW 15.6 km/h 30.7 km/h 98 % 0 mm
00:58 -13.5 °C -13.3 °C 34774.2 hPa SW 16.9 km/h 30.7 km/h 98 % 0 mm
01:03 -13.5 °C -13.3 °C 34774.2 hPa SW 16.9 km/h 22 km/h 98 % 0 mm
01:08 -13.4 °C -13.3 °C 34774.2 hPa SSW 15 km/h 22.5 km/h 98 % 0 mm
01:13 -13.4 °C -13.3 °C 34774.2 hPa SW 17.9 km/h 22.5 km/h 98 % 0 mm
01:18 -13.4 °C -13.3 °C 34774.2 hPa SSW 15.6 km/h 25.4 km/h 98 % 0 mm
01:23 -13.4 °C -13.3 °C 34774.2 hPa SW 14.5 km/h 25.4 km/h 98 % 7.62 mm
01:28 -13.4 °C -13.3 °C 34774.2 hPa WSW 14.5 km/h 24.8 km/h 98 % 7.62 mm
01:33 -13.4 °C -13.3 °C 34774.2 hPa SW 18.7 km/h 24.8 km/h 98 % 7.62 mm
01:38 -13.4 °C -13.3 °C 34774.2 hPa WSW 14.5 km/h 22 km/h 98 % 7.62 mm
01:43 -13.3 °C -13.3 °C 34774.2 hPa WSW 16.3 km/h 20.3 km/h 98 % 7.62 mm
01:48 -13.3 °C -13.3 °C 34774.2 hPa SSW 14.5 km/h 19.6 km/h 98 % 7.62 mm
01:53 -13.3 °C -13.3 °C 34774.2 hPa WSW 14 km/h 18.7 km/h 98 % 7.62 mm
01:58 -13.3 °C -13.3 °C 34774.2 hPa SW 22 km/h 22 km/h 98 % 7.62 mm
02:03 -13.3 °C -13.3 °C 34774.2 hPa WSW 20.9 km/h 22.5 km/h 98 % 7.62 mm
02:08 -13.3 °C -13.3 °C 34774.2 hPa WSW 19.2 km/h 22.5 km/h 98 % 7.62 mm
02:13 -13.3 °C -13.3 °C 34774.2 hPa SW 22 km/h 23.8 km/h 98 % 7.62 mm
02:18 -13.2 °C -13.3 °C 34774.2 hPa WSW 20.3 km/h 27.2 km/h 98 % 7.62 mm
02:23 -13.2 °C -12.8 °C 34774.2 hPa SW 18.7 km/h 33.2 km/h 98 % 0 mm
02:28 -13.1 °C -12.8 °C 34774.2 hPa WSW 16.9 km/h 33.2 km/h 98 % 0 mm
02:33 -13.1 °C -12.8 °C 34774.2 hPa WSW 16.3 km/h 31.4 km/h 98 % 0 mm
02:34 -13.1 °C -12.8 °C 34774.2 hPa SW 16.9 km/h 31.4 km/h 98 % 0 mm
02:39 -13.1 °C -12.8 °C 34774.2 hPa SSW 22.5 km/h 31.4 km/h 98 % 0 mm
02:44 -13.1 °C -12.8 °C 34774.2 hPa WSW 19.6 km/h 28.5 km/h 98 % 0 mm
02:49 -13 °C -12.8 °C 34774.2 hPa SW 15.6 km/h 28.5 km/h 98 % 0 mm
02:54 -12.9 °C -12.8 °C 34774.2 hPa SW 15 km/h 27.7 km/h 98 % 0 mm
02:59 -12.9 °C -12.8 °C 34774.2 hPa WSW 16.9 km/h 27.2 km/h 98 % 0 mm
03:04 -12.9 °C -12.8 °C 34774.2 hPa WSW 15.6 km/h 29 km/h 98 % 0 mm
03:09 -12.8 °C -12.8 °C 34774.2 hPa SW 20.3 km/h 29 km/h 98 % 0 mm
03:14 -12.8 °C -12.8 °C 34774.2 hPa SW 26.7 km/h 28.5 km/h 98 % 0 mm
03:19 -12.7 °C -12.8 °C 34774.2 hPa SW 24.8 km/h 37.5 km/h 98 % 0 mm
03:24 -12.7 °C -12.8 °C 34774.2 hPa WSW 20.9 km/h 37.5 km/h 98 % 0 mm
03:29 -12.7 °C -12.8 °C 34808.1 hPa SSW 23.8 km/h 27.7 km/h 98 % 0 mm
03:35 -12.7 °C -12.8 °C 34808.1 hPa SW 14 km/h 25.4 km/h 98 % 0 mm
03:40 -12.6 °C -12.8 °C 34808.1 hPa WSW 14.5 km/h 22.5 km/h 98 % 0 mm
03:45 -12.6 °C -12.8 °C 34774.2 hPa WSW 22 km/h 24.3 km/h 98 % 0 mm
03:50 -12.6 °C -12.8 °C 34774.2 hPa WSW 20.9 km/h 27.7 km/h 98 % 0 mm
03:55 -12.6 °C -12.8 °C 34774.2 hPa WSW 26.7 km/h 27.7 km/h 98 % 0 mm
04:00 -12.6 °C -12.8 °C 34808.1 hPa WSW 20.9 km/h 26.7 km/h 98 % 0 mm
04:05 -12.6 °C -12.8 °C 34808.1 hPa SW 18.7 km/h 24.8 km/h 98 % 0 mm
04:10 -12.6 °C -12.8 °C 34808.1 hPa WSW 19.6 km/h 24.3 km/h 98 % 0 mm
04:15 -12.5 °C -12.2 °C 34808.1 hPa WSW 24.3 km/h 24.3 km/h 98 % 0 mm
04:20 -12.5 °C -12.2 °C 34808.1 hPa WSW 20.3 km/h 28.5 km/h 98 % 0 mm
04:25 -12.4 °C -12.2 °C 34808.1 hPa WSW 27.2 km/h 29.5 km/h 98 % 0 mm
04:30 -12.4 °C -12.2 °C 34808.1 hPa WSW 26.2 km/h 29.5 km/h 98 % 0 mm
04:35 -12.4 °C -12.2 °C 34808.1 hPa WSW 28.5 km/h 33.6 km/h 98 % 0 mm
04:40 -12.3 °C -12.2 °C 34808.1 hPa WSW 27.2 km/h 33.6 km/h 98 % 0 mm
04:45 -12.3 °C -12.2 °C 34774.2 hPa West 27.7 km/h 34.8 km/h 98 % 0 mm
04:50 -12.2 °C -12.2 °C 34774.2 hPa WSW 26.2 km/h 34.8 km/h 98 % 0 mm
04:55 -12.2 °C -12.2 °C 34774.2 hPa WSW 26.7 km/h 31.4 km/h 98 % 0 mm
05:00 -12.2 °C -12.2 °C 34808.1 hPa WSW 22 km/h 31.4 km/h 98 % 0 mm
05:05 -12.2 °C -12.2 °C 34808.1 hPa West 24.3 km/h 34.1 km/h 98 % 0 mm
05:11 -12.2 °C -12.2 °C 34808.1 hPa WSW 28.5 km/h 34.1 km/h 98 % 0 mm
05:16 -12.1 °C -12.2 °C 34808.1 hPa WSW 18.7 km/h 36.5 km/h 98 % 0 mm
05:21 -12.1 °C -12.2 °C 34808.1 hPa WSW 22 km/h 36.5 km/h 98 % 0 mm
05:26 -12.1 °C -12.2 °C 34808.1 hPa WSW 25.4 km/h 34.1 km/h 98 % 0 mm
05:31 -12.1 °C -12.2 °C 34808.1 hPa WSW 19.6 km/h 31.4 km/h 98 % 0 mm
05:36 -12.1 °C -12.2 °C 34808.1 hPa West 19.6 km/h 28.5 km/h 98 % 0 mm
05:41 -12.1 °C -12.2 °C 34808.1 hPa WSW 16.3 km/h 27.2 km/h 98 % 0 mm
05:46 -12.1 °C -12.2 °C 34841.9 hPa WSW 16.3 km/h 27.2 km/h 98 % 0 mm
05:51 -12.1 °C -12.2 °C 34841.9 hPa West 14.5 km/h 27.2 km/h 98 % 0 mm
05:56 -12.1 °C -12.2 °C 34841.9 hPa WSW 17.9 km/h 27.7 km/h 98 % 0 mm
06:01 -12.1 °C -12.2 °C 34841.9 hPa West 16.9 km/h 27.7 km/h 98 % 0 mm
06:06 -12 °C -12.2 °C 34841.9 hPa West 24.8 km/h 26.2 km/h 98 % 0 mm
06:11 -12 °C -12.2 °C 34841.9 hPa WNW 15.6 km/h 26.2 km/h 98 % 0 mm
06:16 -12 °C -12.2 °C 34841.9 hPa WSW 19.6 km/h 26.7 km/h 98 % 0 mm
06:21 -12 °C -12.2 °C 34841.9 hPa WSW 24.8 km/h 27.7 km/h 98 % 0 mm
06:26 -12 °C -12.2 °C 34841.9 hPa West 27.2 km/h 27.7 km/h 98 % 0 mm
06:31 -11.9 °C -11.7 °C 34841.9 hPa West 26.2 km/h 33.2 km/h 98 % 0 mm
06:36 -11.9 °C -11.7 °C 34841.9 hPa WSW 24.3 km/h 33.6 km/h 98 % 0 mm
06:37 -11.9 °C -11.7 °C 34841.9 hPa West 27.2 km/h 33.6 km/h 98 % 0 mm
06:42 -11.9 °C -11.7 °C 34841.9 hPa West 16.3 km/h 33.6 km/h 98 % 0 mm
06:48 -11.9 °C -11.7 °C 34841.9 hPa WSW 22.5 km/h 27.2 km/h 98 % 0 mm
06:53 -11.9 °C -11.7 °C 34841.9 hPa WSW 20.3 km/h 31.4 km/h 98 % 0 mm
06:58 -12 °C -12.2 °C 34841.9 hPa WSW 15 km/h 31.4 km/h 98 % 0 mm
07:03 -12 °C -12.2 °C 34808.1 hPa WSW 20.9 km/h 29 km/h 98 % 0 mm
07:08 -12 °C -12.2 °C 34808.1 hPa WSW 15 km/h 26.7 km/h 98 % 0 mm
07:13 -12 °C -12.2 °C 34808.1 hPa WSW 18.7 km/h 25.4 km/h 98 % 0 mm
07:18 -12 °C -12.2 °C 34841.9 hPa WSW 20.9 km/h 25.4 km/h 98 % 0 mm
07:23 -12 °C -12.2 °C 34841.9 hPa WSW 15 km/h 23 km/h 98 % 0 mm
07:28 -12 °C -12.2 °C 34841.9 hPa WSW 16.9 km/h 22.5 km/h 98 % 0 mm
07:33 -11.9 °C -11.7 °C 34841.9 hPa WSW 31.9 km/h 36.5 km/h 98 % 0 mm
07:38 -11.9 °C -11.7 °C 34841.9 hPa WSW 26.2 km/h 36.5 km/h 98 % 0 mm
07:43 -11.9 °C -11.7 °C 34841.9 hPa WSW 31.9 km/h 38.3 km/h 98 % 0 mm
07:48 -11.9 °C -11.7 °C 34841.9 hPa WSW 26.2 km/h 38.3 km/h 98 % 0 mm
07:53 -11.9 °C -11.7 °C 34841.9 hPa WSW 17.4 km/h 39.4 km/h 98 % 0 mm
07:58 -11.9 °C -11.7 °C 34841.9 hPa WSW 26.2 km/h 39.4 km/h 98 % 0 mm
08:03 -11.9 °C -11.7 °C 34875.8 hPa WSW 14.5 km/h 28.5 km/h 98 % 0 mm
08:08 -11.9 °C -11.7 °C 34875.8 hPa WSW 16.9 km/h 28.5 km/h 98 % 0 mm
08:13 -11.9 °C -11.7 °C 34875.8 hPa WSW 22 km/h 26.2 km/h 98 % 0 mm
08:18 -11.9 °C -11.7 °C 34875.8 hPa WSW 16.3 km/h 31.9 km/h 98 % 0 mm
08:23 -12 °C -12.2 °C 34875.8 hPa WSW 16.3 km/h 31.9 km/h 98 % 0 mm
08:28 -12 °C -12.2 °C 34875.8 hPa Calm   18.7 km/h 98 % 0 mm
08:33 -12 °C -12.2 °C 34875.8 hPa SW 14 km/h 19.2 km/h 98 % 0 mm
08:38 -12 °C -12.2 °C 34875.8 hPa WSW 19.6 km/h 22.5 km/h 98 % 0 mm
08:43 -12 °C -12.2 °C 34875.8 hPa WSW 27.7 km/h 27.7 km/h 98 % 0 mm
08:48 -12 °C -12.2 °C 34875.8 hPa WSW 22 km/h 27.7 km/h 98 % 0 mm
08:53 -11.9 °C -11.7 °C 34875.8 hPa WSW 22.5 km/h 34.1 km/h 98 % 0 mm
08:58 -11.9 °C -11.7 °C 34909.7 hPa WSW 20.9 km/h 34.1 km/h 98 % 0 mm
09:03 -11.9 °C -11.7 °C 34909.7 hPa WSW 20.3 km/h 31.4 km/h 98 % 0 mm
09:08 -11.9 °C -11.7 °C 34909.7 hPa WSW 19.2 km/h 27.7 km/h 98 % 0 mm
09:13 -11.9 °C -11.7 °C 34909.7 hPa WSW 33.6 km/h 33.6 km/h 98 % 0 mm
09:18 -11.9 °C -11.7 °C 34909.7 hPa West 37.5 km/h 39.9 km/h 98 % 0 mm
09:24 -11.8 °C -11.7 °C 34909.7 hPa West 27.2 km/h 39.9 km/h 98 % 0 mm
09:29 -11.8 °C -11.7 °C 34909.7 hPa West 25.4 km/h 39.9 km/h 98 % 0 mm
09:34 -11.8 °C -11.7 °C 34909.7 hPa West 20.9 km/h 38.3 km/h 98 % 0 mm
09:39 -11.8 °C -11.7 °C 34909.7 hPa West 20.3 km/h 33.2 km/h 98 % 0 mm
09:44 -11.8 °C -11.7 °C 34909.7 hPa WSW 22 km/h 39.9 km/h 98 % 0 mm
09:49 -11.8 °C -11.7 °C 34909.7 hPa WSW 25.4 km/h 39.9 km/h 98 % 0 mm
09:54 -11.8 °C -11.7 °C 34909.7 hPa WSW 30.7 km/h 34.1 km/h 98 % 0 mm
09:59 -11.7 °C -11.7 °C 34946.9 hPa West 26.2 km/h 34.1 km/h 98 % 0 mm
10:04 -11.7 °C -11.7 °C 34946.9 hPa WSW 20.9 km/h 30.7 km/h 98 % 0 mm
10:09 -11.7 °C -11.7 °C 34946.9 hPa WSW 19.6 km/h 27.7 km/h 98 % 0 mm
10:14 -11.7 °C -11.7 °C 34875.8 hPa WSW 20.9 km/h 27.7 km/h 98 % 0 mm
10:19 -11.7 °C -11.7 °C 34875.8 hPa WSW 22 km/h 33.6 km/h 98 % 0 mm
10:24 -11.7 °C -11.7 °C 34875.8 hPa West 34.1 km/h 34.8 km/h 98 % 0 mm
10:29 -11.6 °C -11.7 °C 34909.7 hPa WSW 28.5 km/h 34.8 km/h 98 % 0 mm
10:34 -11.6 °C -11.7 °C 34909.7 hPa West 26.2 km/h 35.2 km/h 98 % 0 mm
10:39 -11.6 °C -11.7 °C 34909.7 hPa WSW 22.5 km/h 35.2 km/h 98 % 0 mm
10:45 -11.6 °C -11.7 °C 34875.8 hPa West 22 km/h 34.1 km/h 98 % 0 mm
10:50 -11.5 °C -11.7 °C 34875.8 hPa WSW 19.2 km/h 33.2 km/h 98 % 0 mm
10:55 -11.4 °C -11.7 °C 34875.8 hPa West 25.4 km/h 33.6 km/h 98 % 0 mm
11:00 -11.4 °C -11.7 °C 34909.7 hPa West 27.7 km/h 43.5 km/h 98 % 0 mm
11:05 -11.4 °C -11.7 °C 34909.7 hPa West 20.3 km/h 43.5 km/h 97 % 0 mm
11:10 -11.4 °C -11.7 °C 34909.7 hPa West 25.4 km/h 40.7 km/h 97 % 0 mm
11:15 -11.4 °C -11.7 °C 34909.7 hPa WSW 34.1 km/h 40.7 km/h 96 % 0 mm
11:20 -11.4 °C -11.7 °C 34909.7 hPa WSW 28.5 km/h 44.1 km/h 95 % 0 mm
11:25 -11.3 °C -11.7 °C 34909.7 hPa West 26.2 km/h 51.5 km/h 95 % 0 mm
11:30 -11.3 °C -11.7 °C 34909.7 hPa West 17.9 km/h 51.5 km/h 94 % 0 mm
11:35 -11.3 °C -11.7 °C 34909.7 hPa West 28.5 km/h 39.4 km/h 95 % 0 mm
11:40 -11.2 °C -11.7 °C 34909.7 hPa WSW 32.3 km/h 49.7 km/h 94 % 0 mm
11:45 -11.2 °C -11.7 °C 34909.7 hPa WSW 31.4 km/h 57.3 km/h 93 % 0 mm
11:50 -11.2 °C -11.7 °C 34909.7 hPa West 33.6 km/h 57.3 km/h 93 % 0 mm
11:55 -11.1 °C -11.7 °C 34909.7 hPa WSW 38.3 km/h 54.4 km/h 92 % 0 mm
12:00 -11.1 °C -11.7 °C 34875.8 hPa West 27.2 km/h 54.4 km/h 93 % 0 mm
12:06 -11.1 °C -11.7 °C 34875.8 hPa WSW 28.5 km/h 53.9 km/h 93 % 0 mm
12:11 -11.1 °C -11.7 °C 34875.8 hPa WSW 34.1 km/h 53.9 km/h 92 % 0 mm
12:16 -11 °C -11.7 °C 34909.7 hPa WSW 30.7 km/h 51 km/h 92 % 0 mm
12:21 -11 °C -11.7 °C 34909.7 hPa West 33.6 km/h 57.9 km/h 92 % 0 mm
12:26 -11 °C -11.7 °C 34909.7 hPa WSW 38.3 km/h 57.9 km/h 92 % 0 mm
12:31 -11 °C -11.7 °C 34909.7 hPa West 29 km/h 46.8 km/h 92 % 0 mm
12:36 -11 °C -11.7 °C 34909.7 hPa West 26.7 km/h 57.3 km/h 92 % 0 mm
12:41 -11.1 °C -11.7 °C 34909.7 hPa West 25.4 km/h 57.3 km/h 92 % 0 mm
12:46 -11 °C -11.7 °C 34909.7 hPa West 39.9 km/h 56.6 km/h 92 % 0 mm
12:51 -11.1 °C -11.7 °C 34909.7 hPa West 44.6 km/h 56.6 km/h 92 % 0 mm
12:56 -11.1 °C -11.7 °C 34909.7 hPa West 33.2 km/h 54.4 km/h 93 % 0 mm
13:01 -11.1 °C -11.7 °C 34909.7 hPa West 28.5 km/h 44.1 km/h 93 % 0 mm
13:06 -11.1 °C -11.7 °C 34909.7 hPa West 45.1 km/h 68.4 km/h 93 % 0 mm
13:11 -11.1 °C -11.7 °C 34909.7 hPa WSW 35.2 km/h 68.4 km/h 93 % 0 mm
13:16 -11.1 °C -11.7 °C 34909.7 hPa West 37.5 km/h 53.9 km/h 93 % 0 mm
13:21 -11.1 °C -11.7 °C 34909.7 hPa West 27.7 km/h 45.9 km/h 93 % 0 mm
13:26 -11.1 °C -11.7 °C 34909.7 hPa West 51.5 km/h 53.9 km/h 93 % 0 mm
13:31 -11.2 °C -11.7 °C 34909.7 hPa West 48.6 km/h 53.9 km/h 93 % 0 mm
13:36 -11.2 °C -11.7 °C 34909.7 hPa West 33.6 km/h 52.8 km/h 93 % 0 mm
13:41 -11.2 °C -11.7 °C 34909.7 hPa West 38.3 km/h 57.9 km/h 93 % 0 mm
13:46 -11.2 °C -11.7 °C 34909.7 hPa West 43.5 km/h 59.5 km/h 93 % 0 mm
13:51 -11.2 °C -11.7 °C 34909.7 hPa WSW 39.4 km/h 59.5 km/h 93 % 0 mm
13:56 -11.2 °C -11.7 °C 34909.7 hPa West 34.8 km/h 50.5 km/h 93 % 0 mm
14:01 -11.3 °C -11.7 °C 34909.7 hPa WSW 49.7 km/h 59.1 km/h 93 % 0 mm
14:06 -11.2 °C -11.7 °C 34909.7 hPa WSW 45.9 km/h 59.1 km/h 93 % 0 mm
14:11 -11.2 °C -11.7 °C 34909.7 hPa West 22 km/h 50.5 km/h 93 % 0 mm
14:16 -11.1 °C -11.7 °C 34875.8 hPa West 22 km/h 45.9 km/h 93 % 0 mm
14:21 -11.1 °C -11.7 °C 34875.8 hPa West 22 km/h 22 km/h 93 % 0 mm
14:26 -11.1 °C -11.7 °C 34875.8 hPa West 22 km/h 22 km/h 92 % 0 mm
14:31 -11.1 °C -11.7 °C 34909.7 hPa West 22 km/h 22 km/h 92 % 0 mm
14:36 -11.2 °C -11.7 °C 34909.7 hPa West 22 km/h 22 km/h 92 % 0 mm
14:42 -11.2 °C -11.7 °C 34909.7 hPa West 22 km/h 22 km/h 92 % 0 mm
14:47 -11.2 °C -11.7 °C 34909.7 hPa West 22 km/h 22 km/h 93 % 0 mm
14:52 -11.2 °C -11.7 °C 34909.7 hPa West 22 km/h 22 km/h 93 % 0 mm
14:57 -11.2 °C -11.7 °C 34909.7 hPa West 22 km/h 22 km/h 93 % 0 mm
15:02 -11.3 °C -11.7 °C 34909.7 hPa West 22 km/h 22 km/h 93 % 0 mm
15:07 -11.2 °C -11.7 °C 34909.7 hPa WSW 26.2 km/h 26.2 km/h 93 % 0 mm
15:12 -11.2 °C -11.7 °C 34909.7 hPa WSW 26.2 km/h 26.2 km/h 93 % 0 mm
15:17 -11.2 °C -11.7 °C 34909.7 hPa WSW 26.2 km/h 26.2 km/h 92 % 0 mm
15:22 -11.2 °C -11.7 °C 34909.7 hPa WSW 48.1 km/h 48.1 km/h 92 % 0 mm
15:27 -11.2 °C -11.7 °C 34909.7 hPa WSW 57.9 km/h 57.9 km/h 92 % 0 mm
15:32 -11.2 °C -12.2 °C 34909.7 hPa West 62 km/h 62 km/h 92 % 0 mm
15:37 -11.3 °C -12.2 °C 34909.7 hPa WSW 56.6 km/h 62 km/h 92 % 0 mm
15:42 -11.3 °C -12.2 °C 34909.7 hPa West 51.5 km/h 62 km/h 92 % 0 mm
15:47 -11.2 °C -11.7 °C 34909.7 hPa West 51.5 km/h 56.6 km/h 93 % 0 mm
15:52 -11.2 °C -12.2 °C 34909.7 hPa West 52.8 km/h 52.8 km/h 92 % 0 mm
15:57 -11.2 °C -12.2 °C 34909.7 hPa West 48.1 km/h 52.8 km/h 92 % 0 mm
16:03 -11.2 °C -11.7 °C 34875.8 hPa West 48.1 km/h 52.8 km/h 93 % 0 mm
16:08 -11.2 °C -11.7 °C 34875.8 hPa West 48.1 km/h 48.1 km/h 93 % 0 mm
16:13 -11.2 °C -12.2 °C 34875.8 hPa West 48.1 km/h 48.1 km/h 92 % 0 mm
16:18 -11.3 °C -12.2 °C 34909.7 hPa West 48.1 km/h 48.1 km/h 92 % 0 mm
16:23 -11.3 °C -12.2 °C 34909.7 hPa West 48.1 km/h 48.1 km/h 92 % 0 mm
16:28 -11.3 °C -12.2 °C 34909.7 hPa West 48.1 km/h 48.1 km/h 92 % 0 mm
16:33 -11.3 °C -12.2 °C 34909.7 hPa West 48.1 km/h 48.1 km/h 92 % 0 mm
16:38 -11.3 °C -12.2 °C 34909.7 hPa WSW 58.6 km/h 58.6 km/h 92 % 0 mm
16:43 -11.4 °C -12.2 °C 34909.7 hPa West 51.5 km/h 58.6 km/h 91 % 0 mm
16:48 -11.4 °C -12.2 °C 34909.7 hPa West 44.6 km/h 58.6 km/h 92 % 0 mm
16:53 -11.4 °C -12.2 °C 34909.7 hPa WSW 32.3 km/h 51.5 km/h 93 % 0 mm
16:58 -11.4 °C -12.2 °C 34909.7 hPa WSW 39.9 km/h 61.3 km/h 93 % 0 mm
17:03 -11.5 °C -12.2 °C 34909.7 hPa WSW 44.6 km/h 61.3 km/h 94 % 0 mm
17:08 -11.5 °C -12.2 °C 34909.7 hPa WSW 32.3 km/h 45.9 km/h 94 % 0 mm
17:13 -11.6 °C -12.2 °C 34909.7 hPa WSW 52.8 km/h 59.1 km/h 94 % 0 mm
17:18 -11.6 °C -12.2 °C 34909.7 hPa WSW 44.6 km/h 59.1 km/h 94 % 0 mm
17:23 -11.6 °C -12.2 °C 34909.7 hPa WSW 34.1 km/h 62 km/h 94 % 0 mm
17:28 -11.6 °C -12.2 °C 34909.7 hPa WSW 46.3 km/h 62 km/h 94 % 0 mm
17:34 -11.6 °C -12.2 °C 34909.7 hPa WSW 26.7 km/h 48.6 km/h 94 % 0 mm
17:39 -11.6 °C -12.2 °C 34909.7 hPa WSW 44.6 km/h 48.6 km/h 94 % 0 mm
17:44 -11.7 °C -12.2 °C 34909.7 hPa WSW 45.9 km/h 52 km/h 94 % 0 mm
17:49 -11.7 °C -12.2 °C 34909.7 hPa WSW 45.9 km/h 59.5 km/h 94 % 0 mm
17:54 -11.7 °C -12.2 °C 34909.7 hPa WSW 33.2 km/h 59.5 km/h 95 % 0 mm
17:59 -11.7 °C -12.2 °C 34909.7 hPa WSW 39.4 km/h 50.5 km/h 95 % 0 mm
18:04 -11.7 °C -12.2 °C 34909.7 hPa WSW 39.4 km/h 51 km/h 95 % 0 mm
18:09 -11.7 °C -11.7 °C 34909.7 hPa WSW 26.2 km/h 51 km/h 96 % 0 mm
18:14 -11.7 °C -11.7 °C 34875.8 hPa WSW 28.5 km/h 44.6 km/h 96 % 0 mm
18:19 -11.8 °C -12.2 °C 34875.8 hPa WSW 27.2 km/h 39.4 km/h 96 % 0 mm
18:24 -11.8 °C -12.2 °C 34875.8 hPa WSW 26.2 km/h 34.1 km/h 96 % 0 mm
18:28 -11.8 °C -12.2 °C 34875.8 hPa WSW 27.7 km/h 36 km/h 96 % 0 mm
18:33 -11.8 °C -12.2 °C 34909.7 hPa WSW 25.4 km/h 37.5 km/h 96 % 0 mm
18:38 -11.8 °C -12.2 °C 34909.7 hPa WSW 31.9 km/h 37.5 km/h 97 % 0 mm
18:43 -11.8 °C -12.2 °C 34909.7 hPa WSW 28.5 km/h 33.2 km/h 97 % 0 mm
18:48 -11.8 °C -12.2 °C 34909.7 hPa WSW 20.3 km/h 33.2 km/h 97 % 0 mm
18:53 -11.8 °C -12.2 °C 34909.7 hPa West 26.2 km/h 27.7 km/h 97 % 0 mm
18:58 -11.8 °C -12.2 °C 34909.7 hPa WSW 25.4 km/h 27.7 km/h 97 % 0 mm
19:03 -11.8 °C -12.2 °C 34909.7 hPa WSW 26.7 km/h 29 km/h 97 % 0 mm
19:08 -11.8 °C -12.2 °C 34909.7 hPa West 35.2 km/h 35.2 km/h 97 % 0 mm
19:13 -11.8 °C -12.2 °C 34909.7 hPa WSW 31.4 km/h 36 km/h 97 % 0 mm
19:18 -11.7 °C -11.7 °C 34909.7 hPa WSW 34.1 km/h 36 km/h 97 % 0 mm
19:23 -11.7 °C -11.7 °C 34909.7 hPa WSW 38.3 km/h 38.3 km/h 97 % 0 mm
19:28 -11.7 °C -11.7 °C 34909.7 hPa WSW 27.2 km/h 38.3 km/h 97 % 0 mm
19:33 -11.7 °C -11.7 °C 34909.7 hPa WSW 28.5 km/h 39.9 km/h 97 % 0 mm
19:38 -11.7 °C -11.7 °C 34909.7 hPa WSW 33.2 km/h 39.9 km/h 97 % 0 mm
19:43 -11.7 °C -11.7 °C 34909.7 hPa WSW 37 km/h 42.2 km/h 97 % 0 mm
19:49 -11.7 °C -11.7 °C 34909.7 hPa WSW 26.7 km/h 42.2 km/h 97 % 0 mm
19:54 -11.8 °C -12.2 °C 34909.7 hPa WSW 37.5 km/h 51 km/h 97 % 0 mm
19:59 -11.8 °C -11.7 °C 34909.7 hPa WSW 45.9 km/h 51 km/h 98 % 0 mm
20:04 -11.8 °C -11.7 °C 34909.7 hPa WSW 27.2 km/h 45.9 km/h 98 % 0 mm
20:09 -11.8 °C -11.7 °C 34909.7 hPa WSW 40.7 km/h 45.9 km/h 98 % 0 mm
20:14 -11.8 °C -11.7 °C 34875.8 hPa West 31.9 km/h 45.9 km/h 98 % 0 mm
20:19 -11.8 °C -11.7 °C 34875.8 hPa WSW 41.7 km/h 45.9 km/h 98 % 0 mm
20:24 -11.8 °C -11.7 °C 34875.8 hPa West 36.5 km/h 44.1 km/h 98 % 0 mm
20:29 -11.8 °C -11.7 °C 34875.8 hPa WSW 24.8 km/h 44.1 km/h 98 % 0 mm
20:34 -11.8 °C -11.7 °C 34875.8 hPa WSW 27.2 km/h 44.6 km/h 98 % 0 mm
20:39 -11.8 °C -11.7 °C 34875.8 hPa WSW 39.9 km/h 51.5 km/h 98 % 0 mm
20:44 -11.8 °C -11.7 °C 34875.8 hPa WSW 33.6 km/h 53.3 km/h 98 % 0 mm
20:49 -11.8 °C -11.7 °C 34875.8 hPa WSW 41.2 km/h 53.3 km/h 98 % 0 mm
20:54 -11.8 °C -11.7 °C 34875.8 hPa WSW 39.9 km/h 46.3 km/h 98 % 0 mm
20:59 -11.9 °C -11.7 °C 34909.7 hPa WSW 33.2 km/h 43 km/h 98 % 0 mm
21:04 -11.9 °C -11.7 °C 34909.7 hPa WSW 25.4 km/h 40.7 km/h 98 % 0 mm
21:09 -11.9 °C -11.7 °C 34909.7 hPa WSW 33.2 km/h 40.7 km/h 98 % 0 mm
21:14 -11.9 °C -11.7 °C 34909.7 hPa WSW 34.1 km/h 39.9 km/h 98 % 0 mm
21:20 -11.9 °C -11.7 °C 34909.7 hPa WSW 28.5 km/h 39.9 km/h 98 % 0 mm
21:25 -11.9 °C -11.7 °C 34909.7 hPa WSW 32.3 km/h 39.4 km/h 98 % 0 mm
21:30 -11.9 °C -11.7 °C 34909.7 hPa SW 22.5 km/h 39.4 km/h 98 % 0 mm
21:35 -11.9 °C -11.7 °C 34909.7 hPa WSW 33.6 km/h 38.3 km/h 98 % 0 mm
21:40 -11.9 °C -11.7 °C 34909.7 hPa WSW 34.1 km/h 38.3 km/h 98 % 0 mm
21:45 -11.9 °C -11.7 °C 34875.8 hPa WSW 31.9 km/h 38.3 km/h 98 % 0 mm
21:50 -11.8 °C -11.7 °C 34875.8 hPa WSW 20.9 km/h 39.9 km/h 98 % 0 mm
21:56 -11.8 °C -11.7 °C 34875.8 hPa WSW 27.2 km/h 39.9 km/h 98 % 0 mm
22:01 -11.8 °C -11.7 °C 34875.8 hPa WSW 28.5 km/h 34.1 km/h 98 % 0 mm
22:06 -11.8 °C -11.7 °C 34875.8 hPa WSW 28.5 km/h 33.6 km/h 98 % 0 mm
22:11 -11.8 °C -11.7 °C 34875.8 hPa WSW 31.4 km/h 35.2 km/h 98 % 0 mm
22:16 -11.8 °C -11.7 °C 34909.7 hPa WSW 33.2 km/h 36.5 km/h 98 % 0 mm
22:21 -11.8 °C -11.7 °C 34909.7 hPa SW 20.9 km/h 36.5 km/h 98 % 0 mm
22:26 -11.8 °C -11.7 °C 34909.7 hPa WSW 28.5 km/h 33.2 km/h 98 % 0 mm
22:31 -11.8 °C -11.7 °C 34909.7 hPa WSW 27.7 km/h 32.3 km/h 98 % 0 mm
22:36 -11.8 °C -11.7 °C 34909.7 hPa WSW 20.3 km/h 31.4 km/h 98 % 0 mm
22:41 -11.7 °C -11.7 °C 34909.7 hPa WSW 20.9 km/h 34.1 km/h 98 % 0 mm
22:46 -11.8 °C -11.7 °C 34909.7 hPa SW 23.8 km/h 34.1 km/h 98 % 0 mm
22:51 -11.7 °C -11.7 °C 34909.7 hPa WSW 26.7 km/h 32.3 km/h 98 % 0 mm
22:56 -11.7 °C -11.7 °C 34909.7 hPa WSW 25.4 km/h 43.5 km/h 98 % 0 mm
23:01 -11.7 °C -11.7 °C 34909.7 hPa WSW 33.2 km/h 46.8 km/h 98 % 0 mm
23:06 -11.7 °C -11.7 °C 34909.7 hPa West 33.6 km/h 46.8 km/h 98 % 0 mm
23:11 -11.7 °C -11.7 °C 34909.7 hPa WSW 38.3 km/h 52 km/h 98 % 0 mm
23:16 -11.7 °C -11.7 °C 34909.7 hPa WSW 36 km/h 52 km/h 98 % 0 mm
23:22 -11.6 °C -11.7 °C 34909.7 hPa WSW 36.5 km/h 51 km/h 98 % 0 mm
23:27 -11.6 °C -11.7 °C 34909.7 hPa WSW 35.2 km/h 51 km/h 97 % 0 mm
23:32 -11.6 °C -11.7 °C 34909.7 hPa West 45.9 km/h 46.8 km/h 97 % 0 mm
23:37 -11.6 °C -11.7 °C 34909.7 hPa WSW 33.2 km/h 51.5 km/h 97 % 0 mm
23:42 -11.6 °C -11.7 °C 34909.7 hPa WSW 20.9 km/h 51.5 km/h 97 % 0 mm
23:47 -11.6 °C -11.7 °C 34909.7 hPa West 37 km/h 45.9 km/h 97 % 0 mm
23:52 -11.6 °C -11.7 °C 34909.7 hPa WSW 22 km/h 45.9 km/h 97 % 0 mm
23:57 -11.6 °C -11.7 °C 34909.7 hPa WSW 26.7 km/h 44.6 km/h 97 % 0 mm
Le Gheer Warneton
Courtoisie de Weather Underground - 2.25 mb

Mise a jour : 24/02/2018 15:18:11
Généré par Cumulus 1.9.4 (1099)